Lume 1
1 43908U 18111AJ  21315.55303105  .00002976  00000-0  11422-3 0  9997
2 43908  97.2139 205.4551 0021442 126.1238 234.1991 15.27020303160116
FO-98
1 43933U 19003B   21315.59427480  .00023633  00000-0  74312-3 0  9993
2 43933  97.1687 351.8507 0012586 221.0373 138.9924 15.32889809156596
FO-99
1 43937U 19003F   21315.39014276  .00003558  00000-0  13741-3 0  9993
2 43937  97.1603 352.6237 0021765 206.9059 153.1053 15.26673808156673
MYSat 1
1 44045U 18092F   21315.56101463  .00008785  00000-0  20930-3 0  9990
2 44045  51.6374  67.2786 0010001  21.4437 338.6965 15.42357708154141
AstroCast 0.2
1 44083U 19018F   21315.68760784  .00003878  00000-0  16544-3 0  9995
2 44083  97.3553  13.9277 0012835 168.6163 191.5367 15.23432625145300
AISTechSat 3
1 44103U 19018AB  21315.71795845  .00003189  00000-0  13150-3 0  9993
2 44103  97.3426  14.3990 0013035 177.6716 301.4673 15.24717951145442
AISat 1
1 44104U 19018AC  21315.46672387  .00003050  00000-0  94513-4 0  9991
2 44104  97.4148  33.0925 0055394 190.1799 169.8326 15.32741361146180
Prox-1
1 44339U 19036A   21315.47493519  .00001438  00000-0  28586-3 0  9994
2 44339  23.9993 128.0501 0011091 347.9343  12.0882 14.53903552126582
Oculus-ASR
1 44348U 19036K   21315.16238454  .00032349  00000-0  40929-3 0  9995
2 44348  28.5084 234.2184 0307976  60.5268 302.5685 15.18020761131178
Armadillo
1 44352U 19036P   21315.36945083  .00050119  00000-0  54966-3 0  9996
2 44352  28.5249 198.2943 0263318 116.6731 246.1080 15.29656320131504
NO-104
1 44354U 19036R   21315.42742146  .00030048  00000-0  36811-3 0  9998
2 44354  28.5237 223.3658 0301996  75.6779 287.7146 15.19846571131307
NO-103
1 44355U 19036S   21313.27198883  .00074152 -49863-5  63285-3 0  9998
2 44355  28.5233 164.2984 0210613 171.7953 188.6168 15.44293522131714
Move-IIb
1 44398U 19038N   21315.62695738  .00003764  00000-0  20622-3 0  9992
2 44398  97.6024 279.1952 0024351 157.7435 202.4863 15.14579997130039
SONATE
1 44400U 19038Q   21315.62738675  .00001961  00000-0  11423-3 0  9990
2 44400  97.6085 278.9196 0025160 159.6072 200.6178 15.12949349129985
BeeSat 9
1 44412U 19038AC  21315.63554390  .00002388  00000-0  13479-3 0  9991
2 44412  97.6080 279.3304 0022239 162.4134 197.7872 15.13934666129719
JAISAT-1
1 44419U 19038F   21315.55819905  .00002101  00000-0  11753-3 0  9991
2 44419  97.6084 279.9174 0021215 160.3084 199.8971 15.14418620130055
LightSail-2
1 44420U 19036AC  21315.07330041  .00012333  00000-0  23653-2 0  9996
2 44420  24.0061  99.8774 0017422   1.1246 358.9285 14.61908423124952
Taurus 1
1 44530U 19059C   21315.68283626  .00001333  00000-0  38395-3 0  9994
2 44530  98.5511  47.2857 0014434  62.6981 297.5662 14.46295105114367
Duchifat 3
1 44854U 19089C   21315.34447444  .00001587  00000-0  13213-3 0  9992
2 44854  36.9664 311.8032 0008833 252.2406 107.7267 14.99786218105160
OPS-SAT
1 44878U 19092F   21315.57174527  .00001993  00000-0  10374-3 0  9992
2 44878  97.4762 137.0128 0014187  24.6270 335.5638 15.17117909105136
TO-108
1 44881U 19093C   21315.84254600  .00000300  00000-0  44980-4 0  9990
2 44881  97.9144  32.9881 0015292 168.4014 191.7537 14.81509184102552
FloripaSat 1
1 44885U 19093G   21315.70757192  .00001021  00000-0  13369-3 0  9990
2 44885  97.9170  33.6738 0014749 176.5550 183.5751 14.82464606102585
RS-44
1 44909U 19096E   21315.68863717  .00000002  00000-0 -46046-4 0  9996
2 44909  82.5251  14.9795 0218484 108.8320 253.6613 12.79711243 87700
HO-107
1 45119U 19071J   21315.54670772  .00005381  00000-0  15483-3 0  9999
2 45119  51.6417  42.9880 0011103  99.7947 260.4290 15.37380200 99783
Phoenix
1 45258U 98067RB  21315.71979955  .00020427  00000-0  24081-3 0  9991
2 45258  51.6377 309.9699 0006736  78.0431 282.1317 15.61323295 98171
AztechSat-1
1 45261U 98067RE  21315.18806241  .00236373  31399-4  79128-3 0  9993
2 45261  51.6269 285.9597 0008822  96.4057 263.7954 15.89652489 98476
QARMAN
1 45263U 98067RG  21315.41699711  .00073299  00000-0  50280-3 0  9998
2 45263  51.6349 297.3981 0007993  88.2862 271.9052 15.74002006 98379
Quetzal 1
1 45598U 98067RL  21315.58289952  .00054853  00000-0  45137-3 0  9999
2 45598  51.6362 303.8213 0003403  84.0100 276.1285 15.69841333 87570
BY70-2
1 45857U 20042B   21315.89982404  .00003281  00000-0  46598-3 0  9992
2 45857  97.9751  30.0870 0012360 100.9040 259.3429 14.77560453 73313
UPMSat 2
1 46276U 20061E   21315.48489606  .00001203  00000-0  64594-4 0  9999
2 46276  97.4190  26.2202 0001505 144.8604 215.2729 15.16793883 65829
AmicalSat
1 46287U 20061R   21315.42536816  .00001610  00000-0  10047-3 0  9996
2 46287  97.4742  25.3919 0001787 345.0623  15.0554 15.10891348 65536
SALSAT
1 46495U 20068K   21315.60603841  .00000306  00000-0  26848-4 0  9995
2 46495  97.7041 252.3186 0015006 298.8011  61.1707 15.03660126 61443
BY70-3
1 46839U 20079N   21315.85115828  .00006874  00000-0  20336-3 0  9990
2 46839  97.2268  26.7912 0008134  45.9450  89.5245 15.35186571 56800
SPOC
1 46921U 98067RR  21315.51994231  .00018271  00000-0  23707-3 0  9999
2 46921  51.6401 320.7161 0001118   6.3538 353.7468 15.58896745 57755
Bobcat-1
1 46922U 98067RS  21315.41071576  .00034171  00000-0  36930-3 0  9996
2 46922  51.6413 317.0189 0002304  33.2629 326.8510 15.63278763 57766
Neutron-1
1 46923U 98067RT  21315.48360912  .00019809  00000-0  25772-3 0  9992
2 46923  51.6411 321.2215 0001600   7.7407 352.3610 15.58763002 57786
CAPE 3
1 47309U 21002A   21315.75661944  .00003790  00000-0  17517-3 0  9995
2 47309  60.6831 100.9797 0041647 125.9583 234.5378 15.21547361 45294
AO-109
1 47311U 21002C   21315.58382345  .00002788  00000-0  12949-3 0  9994
2 47311  60.6857 100.1776 0038030 122.3766 238.1011 15.22375697 45263
MiTEE 1
1 47314U 21002F   21315.81940586  .00005877  00000-0  24389-3 0  9993
2 47314  60.6837  96.7089 0039293 114.8966 245.6214 15.24436016 45365
ExoCube 2
1 47319U 21002L   21315.52494123  .00002787  00000-0  13073-3 0  9992
2 47319  60.6848 100.9880 0039030 124.2084 236.2711 15.21995442 45216
UVSQ-SAT
1 47438U 21006AB  21315.43515261  .00001902  00000-0  10939-3 0  9991
2 47438  97.4700  13.9222 0011345 315.5935  44.4386 15.13617302 44285
YUSAT 1
1 47439U 21006AC  21315.69961080  .00002050  00000-0  11744-3 0  9994
2 47439  97.4705  14.1915 0011182 314.8598  45.1724 15.13686570 44321
SOMP 2b
1 47445U 21006AJ  21315.59822014  .00001555  00000-0  90562-4 0  9998
2 47445  97.4673  13.9039 0011091 319.5224  40.5181 15.13430313 44309
IDEASSat
1 47458U 21006AX  21315.55833235  .00001641  00000-0  95763-4 0  9999
2 47458  97.4763  14.1546 0010174 317.9558  42.0892 15.13291246 44296
RSP-01
1 47925U 98067SB  21315.49304583  .00019458  00000-0  27683-3 0  9991
2 47925  51.6418 328.0200 0000538  71.0570 289.0480 15.56369708 37635
TAUSAT-1
1 47926U 98067SC  21315.75612141  .00025905  00000-0  34159-3 0  9993
2 47926  51.6404 325.2646 0000405 109.8043 250.2993 15.58226942 37680
Tsuru
1 47927U 98067SD  21315.52981055  .00018176  00000-0  26519-3 0  9995
2 47927  51.6418 328.2643 0000421 105.3710 254.7328 15.55735486 37637
STARS-EC
1 47928U 98067SE  21315.75824291  .00030077  00000-0  39683-3 0  9999
2 47928  51.6410 326.0300 0004403 337.5584  22.5215 15.58119945 37666
Maya-2
1 47929U 98067SF  21315.46135136  .00018821  00000-0  27424-3 0  9994
2 47929  51.6415 328.5554 0000456 119.4548 240.6488 15.55744392 37584
OPUSAT-II
1 47930U 98067SG  21315.75719661  .00030119  00000-0  38680-3 0  9999
2 47930  51.6413 325.2850 0001462  68.3499 291.7649 15.58845816 37696
GuaraniSat-1
1 47931U 98067SH  21315.33014650  .00018885  00000-0  27484-3 0  9996
2 47931  51.6420 329.1834 0000503 121.5510 238.5531 15.55775516 37607
CubeSX-Sirius-HSE
1 47951U 21022V   21315.91298791  .00001362  00000-0  97222-4 0  9999
2 47951  97.5457 215.0137 0021904 163.8551 262.2266 15.06004468 35243
CubeSX-HSE
1 47952U 21022W   21315.90691171  .00001146  00000-0  82367-4 0  9992
2 47952  97.5440 215.0155 0021817 163.2659 262.9208 15.06040346 35240
KSU-Cubesat
1 47954U 21022Y   21315.54942735  .00001783  00000-0  12548-3 0  9999
2 47954  97.5444 214.7060 0021633 165.7583 194.4259 15.06143473 34919
GRBAlpha
1 47959U 21022AD  21315.71119325  .00001245  00000-0  89128-4 0  9996
2 47959  97.5448 214.8417 0021827 164.4859 280.6432 15.06045855 34031
Orbicraft-Zorkiy
1 47960U 21022AE  21315.83368962  .00001049  00000-0  75669-4 0  9991
2 47960  97.5455 215.0205 0021194 164.2346 282.6427 15.06115604 34749
STECCO
1 47962U 21022AG  21315.73498856  .00003024  00000-0  20370-3 0  9991
2 47962  97.5432 215.1956 0017017 159.9515 284.7090 15.07326206 34054
DO-111
1 47963U 21022AH  21315.43644690  .00003402  00000-0  22240-3 0  9996
2 47963  97.5446 215.1357 0019450 156.8350 203.3759 15.08316208 34041
MO-110
1 47964U 21022AJ  21315.61147902  .00002601  00000-0  17428-3 0  9993
2 47964  97.5438 215.1926 0019950 158.1163 202.0921 15.07604695 34043
FEES
1 48082U 21022AL  21315.67719726  .00003318  00000-0  22329-3 0  9992
2 48082  97.5446 215.1396 0016219 153.9853 206.2193 15.07308116 33752
RamSat
1 48850U 98067SL  21315.52146274  .00012421  00000-0  20500-3 0  9998
2 48850  51.6423 331.9256 0004306 345.7441  14.3427 15.52668495 23331
MO-112
1 48868U 98067SP  21315.56176202  .00028587  00000-0  40995-3 0  9995
2 48868  51.6410 330.6966 0003975  12.0482 348.0604 15.55904743 22133
TUBIN
1 48900U 21059X   21315.86477054  .00001408  00000-0  84589-4 0  9992
2 48900  97.5282  82.6189 0011349 127.4625 350.2082 15.12469170 21015
